Regional Weather Roundup
Issued by NWS Green Bay, WI

Home | Current Version | Previous Version | Graphics & Text | Print | Product List | Glossary Off
Versions: 1 2 3 4 5 6 7 8 9 10 11 12 13 14 15 16 17 18 19 20 21 22 23 24 25 26 27 28 29 30 31 32 33 34 35 36 37 38 39 40 41 42 43 44 45 46 47 48 49 50

000
ASUS43 KGRB 061500
RWRGRB

NORTH-CENTRAL AND NORTHEAST WISCONSIN REGIONAL WEATHER ROUNDUP
NATIONAL WEATHER SERVICE GREEN BAY WI
1000 AM CDT FRI MAY 06 2016

WIZ005-009-010>012-018-019-061600-
NORTH CENTRAL WISCONSIN

CITY           SKY/WX    TMP DP  RH WIND       PRES   REMARKS
IRONWOOD         N/A     79  43  27 W10       29.76F
MANITOWISH WTR NOT AVBL
ARBOR VITAE    NOT AVBL
EAGLE RIVER    NOT AVBL
LAND O LAKES   NOT AVBL
RHINELANDER    SUNNY     74  43  32 NW9       29.86S
PHILLIPS       NOT AVBL
ANTIGO         NOT AVBL
TOMAHAWK       NOT AVBL
MERRILL        NOT AVBL
$$

WIZ013-073-061600-
NORTHEAST WISCONSIN

CITY           SKY/WX    TMP DP  RH WIND       PRES   REMARKS
IRON MOUNTAIN  SUNNY     72  41  32 CALM      29.81F
MARINETTE      SUNNY     68  43  40 SE10      29.85F
$$

WIZ017-030-035>037-045-061600-
CENTRAL WISCONSIN

CITY           SKY/WX    TMP DP  RH WIND       PRES   REMARKS
MEDFORD        NOT AVBL
WAUSAU         SUNNY     70  44  39 W9        29.86S
MOSINEE        MOSUNNY   63  45  51 SW5       29.89S
MARSHFIELD     SUNNY     69  44  40 W10       29.87F
WISC RAPIDS    MOSUNNY   67  42  40 SW7       29.90F
STEVENS POINT  NOT AVBL
WAUPACA        NOT AVBL
SHAWANO        NOT AVBL
CLINTONVILLE   NOT AVBL
WAUTOMA        PTSUNNY   66  43  43 SW6       29.91F
$$

WIZ038-039-048-051-061600-
FOX VALLEY

CITY           SKY/WX    TMP DP  RH WIND       PRES   REMARKS
NWS GREEN BAY  SUNNY     67  45  45 SW10      29.88F
APPLETON       PTSUNNY   64  39  39 SW13      29.88F
OSHKOSH        SUNNY     66  43  43 VRB6      29.89F
FOND DU LAC    SUNNY     67  43  41 SW10      29.91F
$$

WIZ022-050-052-061600-
EAST CENTRAL WISCONSIN

CITY           SKY/WX    TMP DP  RH WIND       PRES   REMARKS
EPHRAIM        NOT AVBL
STURGEON BAY   SUNNY     66  43  42 S10       29.89F
MANITOWOC      NOT AVBL
SHEBOYGAN      SUNNY     70  42  36 SW13      29.90F
$$

LMZ563-521-522-541>543-061600-
LAKESHORE

STATION/POSITION TIME  TEMP    WIND        PRES    VSBY  WAVE
                       AIR SEA DIR/SP/G                  HT/PER
                 (UTC) (F)     (DEG/KT/KT) (MB)    (MI)  (FT/S)
SHEBOYGAN LKSHOR 1400   55     180/ 11/ 12 1013.6F
KEWAUNEE LKSHORE 1400   47     160/  9/ 10 1011.7F
NORTHPORT PIER   1400   49     150/  9/ 11 1011.9S
CHAMBERS ISLAND  1400   59     190/  7/ 16 1011.5F
MENOMINEE LKSHOR 1400   58     180/  8/ 10 1010.1F
$$




USA.gov is the U.S. government's official web portal to all federal, state and local government web resources and services.